GW6044 Weather Reports


Display with metric or nautical units.
time (UTC)temp
F
wind
direction
speed
MPH
gust
MPH
rain 1hr
in
rain 24hr
in
rain mn
in
humidity
%
barometer
mb
20260505125011 53 257 0.0 2.0 0.00 0.00 0.00 92 1014.8
20260505124516 53 252 1.0 2.0 0.00 0.00 0.00 92 1014.9
20260505124008 53 227 1.0 2.0 0.00 0.00 0.00 92 1014.8
20260505123510 53 224 1.0 1.0 0.00 0.00 0.00 91 1014.8
20260505123018 53 225 1.0 1.0 0.00 0.00 0.00 91 1014.7
20260505122507 53 223 1.0 1.0 0.00 0.00 0.00 91 1014.7
20260505122009 53 221 1.0 1.0 0.00 0.00 0.00 91 1014.7
20260505121522 53 229 1.0 1.0 0.00 0.00 0.00 90 1014.7
20260505121009 53 215 1.0 2.0 0.00 0.00 0.00 90 1014.6
20260505120507 53 223 0.0 2.0 0.00 0.00 0.00 90 1014.6
20260505120034 53 232 0.0 2.0 0.00 0.00 0.00 90 1014.6
20260505115507 53 240 0.0 2.0 0.00 0.00 0.00 90 1014.6
20260505115008 53 240 0.0 2.0 0.00 0.00 0.00 90 1014.6
20260505114519 53 240 1.0 2.0 0.00 0.00 0.00 89 1014.7
20260505114012 53 262 0.0 2.0 0.00 0.00 0.00 89 1014.7
20260505113506 53 262 0.0 2.0 0.00 0.00 0.00 89 1014.7
20260505113019 53 262 0.0 2.0 0.00 0.00 0.00 89 1014.6
20260505112511 53 262 0.0 2.0 0.00 0.00 0.00 89 1014.6
20260505112010 53 262 0.0 1.0 0.00 0.00 0.00 89 1014.6
20260505111529 53 262 1.0 1.0 0.00 0.00 0.00 90 1014.6
20260505111009 53 242 0.0 2.0 0.00 0.00 0.00 89 1014.6
20260505110510 53 215 0.0 2.0 0.00 0.00 0.00 89 1014.5
20260505102006 53 271 0.0 2.0 0.00 0.00 0.00 91 1014.4
20260505101519 52 271 0.0 2.0 0.00 0.00 0.00 91 1014.4
20260505101009 52 242 0.0 2.0 0.00 0.00 0.00 92 1014.4
20260505100509 52 242 0.0 2.0 0.00 0.00 0.00 92 1014.4
20260505100027 52 242 0.0 2.0 0.00 0.00 0.00 92 1014.4
20260505095507 52 232 0.0 2.0 0.00 0.00 0.00 92 1014.4
20260505095011 52 234 1.0 2.0 0.00 0.00 0.00 92 1014.3
20260505094520 52 259 1.0 2.0 0.00 0.00 0.00 92 1014.3
20260505094009 51 259 0.0 2.0 0.00 0.00 0.00 92 1014.2
20260505093509 51 259 0.0 2.0 0.00 0.00 0.00 92 1014.2
20260505093022 51 259 0.0 2.0 0.00 0.00 0.00 92 1014.1
20260505092509 51 259 0.0 1.0 0.00 0.00 0.00 92 1014.2
20260505092009 51 259 1.0 1.0 0.00 0.00 0.00 92 1014.1
20260505091521 51 254 0.0 1.0 0.00 0.00 0.00 92 1014.0
20260505091009 51 256 0.0 2.0 0.00 0.00 0.00 92 1014.0
20260505090508 51 239 1.0 2.0 0.00 0.00 0.00 92 1013.8
20260505090021 51 261 1.0 1.0 0.00 0.00 0.00 92 1013.8
20260505085507 51 261 0.0 1.0 0.00 0.00 0.00 92 1013.6
20260505085009 51 258 1.0 1.0 0.00 0.00 0.00 92 1013.6
20260505084533 51 242 1.0 1.0 0.00 0.00 0.00 91 1013.6
20260505084010 51 232 1.0 2.0 0.00 0.00 0.00 91 1013.5
20260505083509 52 225 1.0 2.0 0.00 0.00 0.00 91 1013.5
20260505083030 52 260 1.0 2.0 0.00 0.00 0.00 91 1013.5
20260505082509 52 252 1.0 1.0 0.00 0.00 0.00 91 1013.5
20260505082007 52 259 0.0 2.0 0.00 0.00 0.00 91 1013.4
20260505081525 52 260 1.0 2.0 0.00 0.00 0.00 91 1013.3
20260505081014 52 261 1.0 2.0 0.00 0.00 0.00 91 1013.3
20260505080507 52 261 1.0 2.0 0.00 0.00 0.00 90 1013.3
20260505080033 53 223 0.0 2.0 0.00 0.00 0.00 90 1013.2
20260505075514 53 254 1.0 2.0 0.00 0.00 0.00 90 1013.1
20260505075011 53 240 1.0 2.0 0.00 0.00 0.00 90 1013.1
20260505074526 53 242 0.0 2.0 0.00 0.00 0.00 90 1013.0
20260505074007 53 229 1.0 2.0 0.00 0.00 0.00 90 1013.0
20260505073507 53 247 1.0 2.0 0.00 0.00 0.00 90 1013.0
20260505073037 53 241 1.0 2.0 0.00 0.00 0.00 90 1013.0
20260505072509 53 261 1.0 2.0 0.00 0.00 0.00 89 1012.9
20260505072008 53 243 1.0 1.0 0.00 0.00 0.00 89 1012.9
20260505071540 54 259 1.0 1.0 0.00 0.00 0.00 89 1012.8
20260505071011 54 238 1.0 1.0 0.00 0.00 0.00 89 1012.8
20260505070508 54 236 1.0 2.0 0.00 0.00 0.00 89 1012.6
20260505070036 54 230 1.0 2.0 0.00 0.00 0.00 88 1012.6
20260505065508 54 238 1.0 1.0 0.00 0.00 0.00 88 1012.5
20260505065006 55 248 1.0 2.0 0.00 0.00 0.00 88 1012.4
20260505064524 55 250 1.0 2.0 0.00 0.00 0.00 88 1012.3
20260505064011 55 232 1.0 2.0 0.00 0.00 0.00 87 1012.2
20260505063508 55 254 1.0 2.0 0.00 0.00 0.00 87 1012.1
20260505063032 55 250 1.0 2.0 0.00 0.00 0.00 87 1012.0
20260505062511 56 239 1.0 2.0 0.00 0.00 0.00 86 1012.0
20260505062011 56 242 1.0 2.0 0.00 0.00 0.00 86 1012.0
20260505061529 56 234 1.0 2.0 0.00 0.00 0.00 86 1011.9
20260505061008 56 230 1.0 2.0 0.00 0.00 0.00 86 1011.9
20260505060510 57 205 1.0 2.0 0.00 0.00 0.00 85 1011.8
20260505060051 57 260 1.0 2.0 0.00 0.00 0.00 1011.8
20260505055513 57 249 2.0 2.0 0.00 0.00 0.00 1011.8
20260505055012 57 227 2.0 3.0 0.00 0.00 0.00 83 1011.8
20260505054528 57 234 2.0 3.0 0.00 0.00 0.00 83 1011.7
20260505054019 58 236 2.0 2.0 0.00 0.00 0.00 83 1011.7
20260505053512 58 252 2.0 2.0 0.00 0.00 0.00 82 1011.7
20260505053026 59 231 1.0 2.0 0.00 0.00 0.00 81 1011.7
20260505052511 59 255 1.0 2.0 0.00 0.00 0.00 80 1011.7
20260505052008 59 223 1.0 2.0 0.00 0.00 0.00 79 1011.6
20260505051526 59 256 1.0 2.0 0.00 0.00 0.00 79 1011.6
20260505051007 60 255 1.0 2.0 0.00 0.00 0.00 79 1011.5
20260505050507 60 252 1.0 3.0 0.00 0.00 0.00 78 1011.5
20260505041532 64 289 1.0 4.0 0.00 0.00 0.00 69 1011.0
20260505041012 64 219 1.0 4.0 0.00 0.00 0.00 70 1011.0
20260505040513 64 275 1.0 2.0 0.00 0.00 0.00 71 1010.9
20260505040020 64 161 0.0 2.0 0.00 0.00 0.00 69 1010.9
20260505035506 65 238 0.0 2.0 0.00 0.00 0.00 69 1010.9
20260505035003 65 265 0.0 2.0 0.00 0.00 0.00 69 1010.7
20260505034511 65 263 0.0 2.0 0.00 0.00 0.00 69 1010.6
20260505034006 65 229 0.0 2.0 0.00 0.00 0.00 69 1010.4
20260505033503 66 240 1.0 2.0 0.00 0.00 0.00 70 1010.3
20260505033007 67 266 0.0 3.0 0.00 0.00 0.00 68 1010.1
20260505032508 67 213 1.0 3.0 0.00 0.00 0.00 65 1009.9
20260505032006 67 219 1.0 3.0 0.00 0.00 0.00 65 1009.9
20260505031505 68 215 0.0 2.0 0.00 0.00 0.00 64 1009.8
20260505031005 68 195 1.0 2.0 0.00 0.00 0.00 63 1009.7
20260505030504 68 211 1.0 2.0 0.00 0.00 0.00 64 1009.6
20260505030003 68 200 1.0 2.0 0.00 0.00 0.00 63 1009.6
20260505025507 69 228 1.0 2.0 0.00 0.00 0.00 61 1009.5
20260505025003 69 225 1.0 2.0 0.00 0.00 0.00 60 1009.5
20260505024522 70 246 1.0 2.0 0.00 0.00 0.00 58 1009.6
20260505024005 71 219 1.0 2.0 0.00 0.00 0.00 56 1009.4
20260505023504 71 227 1.0 2.0 0.00 0.00 0.00 55 1009.3
20260505023018 72 218 1.0 2.0 0.00 0.00 0.00 54 1009.3
20260505022502 72 225 1.0 2.0 0.00 0.00 0.00 53 1009.3
20260505022003 72 221 1.0 3.0 0.00 0.00 0.00 51 1009.3
20260505021515 72 213 2.0 3.0 0.00 0.00 0.00 50 1009.3
20260505021007 73 198 2.0 4.0 0.00 0.00 0.00 49 1009.3
20260505020502 73 221 2.0 4.0 0.00 0.00 0.00 49 1009.3
20260505020013 73 235 1.0 4.0 0.00 0.00 0.00 48 1009.3
20260505015505 73 236 2.0 5.0 0.00 0.00 0.00 48 1009.3
20260505015002 74 223 2.0 5.0 0.00 0.00 0.00 47 1009.4
20260505014511 74 218 1.0 5.0 0.00 0.00 0.00 48 1009.3
20260505014007 74 258 1.0 5.0 0.00 0.00 0.00 48 1009.4
20260505013501 74 219 1.0 5.0 0.00 0.00 0.00 49 1009.3
20260505013003 74 237 2.0 5.0 0.00 0.00 0.00 49 1009.3
20260505012505 74 214 2.0 5.0 0.00 0.00 0.00 50 1009.3
20260505012006 74 154 1.0 5.0 0.00 0.00 0.00 51 1009.4
20260505011532 74 144 1.0 5.0 0.00 0.00 0.00 54 1009.4
20260505011004 74 157 1.0 5.0 0.00 0.00 0.00 59 1009.4
20260505010503 74 198 1.0 4.0 0.00 0.00 0.00 58 1009.4
20260505010021 74 211 1.0 8.0 0.00 0.00 0.00 59 1009.4
20260505005503 74 170 3.0 8.0 0.00 0.00 0.00 59 1009.5
20260505005003 74 171 2.0 5.0 0.00 0.00 0.00 59 1009.5
20260505004523 74 148 2.0 6.0 0.00 0.00 0.00 59 1009.6
20260505004006 74 182 0.0 6.0 0.00 0.00 0.00 59 1009.6
20260505003503 74 142 2.0 6.0 0.00 0.00 0.00 59 1009.6
20260505003023 74 214 1.0 6.0 0.00 0.00 0.00 60 1009.6
20260505002505 74 132 1.0 6.0 0.00 0.00 0.00 59 1009.6
20260505002002 74 188 1.0 5.0 0.00 0.00 0.00 59 1009.5
20260505001513 74 165 1.0 4.0 0.00 0.00 0.00 60 1009.6
20260505001008 74 196 1.0 4.0 0.00 0.00 0.00 59 1009.6
20260505000505 73 193 2.0 6.0 0.00 0.00 0.00 60 1009.6
20260505000011 73 101 3.0 6.0 0.00 0.00 0.00 59 1009.6
20260504235506 73 122 3.0 6.0 0.00 0.00 0.00 59 1009.7
20260504235002 73 215 2.0 5.0 0.00 0.00 0.00 60 1009.7
20260504234519 73 150 1.0 5.0 0.00 0.00 0.00 61 1009.6
20260504234002 72 104 2.0 6.0 0.00 0.00 0.00 60 1009.7
20260504233503 72 188 2.0 10.0 0.00 0.00 0.00 59 1009.8
20260504233020 72 103 2.0 10.0 0.00 0.00 0.00 60 1009.8
20260504232505 71 143 3.0 5.0 0.00 0.00 0.00 62 1009.8
20260504232006 71 115 2.0 4.0 0.00 0.00 0.00 64 1009.8
20260504231519 71 102 2.0 8.0 0.00 0.00 0.00 60 1009.9
20260504231009 71 199 3.0 8.0 0.00 0.00 0.00 61 1009.9
20260504230505 72 141 1.0 8.0 0.00 0.00 0.00 61 1010.0
20260504230019 72 96 2.0 8.0 0.00 0.00 0.00 60 1010.0
20260504225507 71 84 2.0 8.0 0.00 0.00 0.00 60 1010.0
20260504225004 72 137 2.0 7.0 0.00 0.00 0.00 61 1010.1
20260504224517 71 145 2.0 7.0 0.00 0.00 0.00 61 1010.2
20260504224006 72 65 2.0 5.0 0.00 0.00 0.00 60 1010.3
20260504223507 72 118 2.0 5.0 0.00 0.00 0.00 61 1010.3
20260504223015 71 157 1.0 5.0 0.00 0.00 0.00 61 1010.4
20260504222508 72 79 2.0 5.0 0.00 0.00 0.00 61 1010.4
20260504222007 71 187 2.0 6.0 0.00 0.00 0.00 61 1010.4
20260504221508 71 161 1.0 6.0 0.00 0.00 0.00 61 1010.6
20260504221005 72 211 1.0 5.0 0.00 0.00 0.00 59 1010.7
20260504220508 72 224 2.0 5.0 0.00 0.00 0.00 59 1010.8
20260504220022 71 200 1.0 5.0 0.00 0.00 0.00 62 1010.8
20260504215505 71 64 1.0 7.0 0.00 0.00 0.00 62 1010.8
20260504215007 71 227 2.0 7.0 0.00 0.00 0.00 60 1010.9
20260504214524 71 230 2.0 6.0 0.00 0.00 0.00 61 1011.0
20260504214005 71 38 1.0 6.0 0.00 0.00 0.00 61 1011.1
20260504213507 71 130 2.0 8.0 0.00 0.00 0.00 61 1011.1
20260504213026 70 188 4.0 8.0 0.00 0.00 0.00 60 1011.1
20260504212507 70 178 3.0 6.0 0.00 0.00 0.00 60 1011.1
20260504212006 71 144 3.0 6.0 0.00 0.00 0.00 61 1011.1
20260504211529 71 124 2.0 9.0 0.00 0.00 0.00 60 1011.2
20260504211007 71 193 2.0 9.0 0.00 0.00 0.00 61 1011.3
20260504210508 71 211 2.0 7.0 0.00 0.00 0.00 60 1011.3
20260504210017 70 209 2.0 7.0 0.00 0.00 0.00 60 1011.3
20260504205504 70 146 2.0 7.0 0.00 0.00 0.00 63 1011.5
20260504205007 70 302 2.0 7.0 0.00 0.00 0.00 60 1011.6
20260504204515 70 181 1.0 9.0 0.00 0.00 0.00 62 1011.7
20260504204007 70 183 2.0 9.0 0.00 0.00 0.00 60 1011.7
20260504203509 71 240 2.0 8.0 0.00 0.00 0.00 58 1011.8
20260504203023 71 136 2.0 5.0 0.00 0.00 0.00 60 1011.7
20260504202508 71 99 2.0 8.0 0.00 0.00 0.00 59 1011.7
20260504202006 70 175 2.0 8.0 0.00 0.00 0.00 60 1011.8
20260504201523 71 219 4.0 7.0 0.00 0.00 0.00 59 1011.8
20260504201004 71 157 2.0 6.0 0.00 0.00 0.00 60 1011.8
20260504200507 71 167 2.0 9.0 0.00 0.00 0.00 64 1011.9
20260504200023 71 232 2.0 9.0 0.00 0.00 0.00 60 1011.9
20260504195506 70 234 3.0 9.0 0.00 0.00 0.00 62 1011.9
20260504195004 70 215 3.0 10.0 0.00 0.00 0.00 61 1011.9
20260504194520 70 169 3.0 10.0 0.00 0.00 0.00 61 1011.9
20260504194009 70 194 1.0 7.0 0.00 0.00 0.00 62 1011.9
20260504193513 70 209 2.0 7.0 0.00 0.00 0.00 61 1011.9
20260504193018 70 223 3.0 7.0 0.00 0.00 0.00 61 1012.0
20260504192509 69 92 2.0 7.0 0.00 0.00 0.00 64 1012.1
20260504192009 69 109 2.0 7.0 0.00 0.00 0.00 64 1012.1
20260504191515 69 90 3.0 7.0 0.00 0.00 0.00 63 1012.1
20260504191008 69 122 2.0 6.0 0.00 0.00 0.00 64 1012.2
20260504190507 69 225 3.0 7.0 0.00 0.00 0.00 61 1012.3
20260504190022 69 173 2.0 7.0 0.00 0.00 0.00 61 1012.3
20260504185507 68 120 1.0 7.0 0.00 0.00 0.00 67 1012.4
20260504185006 67 162 3.0 7.0 0.00 0.00 0.00 67 1012.3
20260504184536 68 113 3.0 8.0 0.00 0.00 0.00 64 1012.4
20260504184008 68 250 2.0 8.0 0.00 0.00 0.00 62 1012.4
20260504183507 68 225 1.0 7.0 0.00 0.00 0.00 63 1012.5
20260504183023 68 216 3.0 7.0 0.00 0.00 0.00 62 1012.5
20260504182507 68 233 1.0 7.0 0.00 0.00 0.00 65 1012.5
20260504182008 67 211 1.0 7.0 0.00 0.00 0.00 63 1012.6
20260504181522 67 178 3.0 6.0 0.00 0.00 0.00 64 1012.5
20260504181008 67 184 2.0 7.0 0.00 0.00 0.00 66 1012.6
20260504180505 67 221 3.0 7.0 0.00 0.00 0.00 64 1012.6
20260504180018 66 187 3.0 7.0 0.00 0.00 0.00 65 1012.5
20260504175507 66 167 2.0 7.0 0.00 0.00 0.00 66 1012.6
20260504175013 66 159 3.0 7.0 0.00 0.00 0.00 67 1012.6
20260504174515 65 226 2.0 7.0 0.00 0.00 0.00 69 1012.7
20260504174004 64 164 2.0 7.0 0.00 0.00 0.00 68 1012.7
20260504173507 64 115 2.0 5.0 0.00 0.00 0.00 68 1012.7
20260504173022 64 219 2.0 5.0 0.00 0.00 0.00 68 1012.7
20260504172508 64 146 2.0 5.0 0.00 0.00 0.00 69 1012.7
20260504172008 63 183 3.0 6.0 0.00 0.00 0.00 70 1012.7
20260504171524 62 113 0.0 7.0 0.00 0.00 0.00 73 1012.6
20260504171008 62 109 4.0 7.0 0.00 0.00 0.00 72 1012.6
20260504170508 63 121 3.0 7.0 0.00 0.00 0.00 73 1012.7
20260504151007 59 174 0.0 3.0 0.00 0.00 0.00 73 1012.5
20260504150507 59 163 0.0 3.0 0.00 0.00 0.00 74 1012.5
20260504141011 53 246 0.0 2.0 0.00 0.00 0.00 86 1011.9
20260504140503 52 233 0.0 2.0 0.00 0.00 0.00 86 1011.9
20260504130505 50 234 3.0 3.0 0.00 0.00 0.00 86 1010.9